Theta_e
319 319 317 317 315 311 307 306 306 305 305 304 304 304 304 303 301 301 300 300 299 299
309 310 308 305 305 304 304 303 304 303 302 301 301 301 300 298 297 297 297 295 296 296
304 304 304 303 301 301 300 299 298 297 297 296 295 295 293 293 293 293 293 294 293 293
299 298 298 298 298 296 295 295 294 293 291 290 290 290 290 288 287 287 288 289 290 289
296 296 295 294 293 293 292 290 289 288 287 287 286 286 286 285 285 284 283 284 284 284
292 292 291 290 289 287 287 286 286 285 284 284 283 284 284 283 283 284 284 285 284 284
288 287 286 285 284 283 283 283 283 283 283 283 283 283 283 283 283 284 284 284 284 283
283 283 283 282 282 282 282 281 282 282 282 283 283 284 283 284 283 283 283 283 283 283
282 282 281 281 281 281 281 281 281 281 282 282 284 285 286 284 283 283 282 282 282 282
281 280 280 280 280 279 279 280 280 280 281 282 284 286 285 284 282 282 282 281 281 281
278 278 278 278 278 278 279 280 280 280 281 282 283 285 283 282 280 280 279 279 279 279
276 275 275 276 277 278 279 279 279 278 278 278 280 283 282 279 278 278 277 277 278 278
275 275 275 276 277 278 279 279 278 277 276 276 276 281 281 279 277 274 275 275 276 278
274 274 275 275 277 277 277 277 275 274 274 274 275 277 280 280 276 274 272 273 274 274
Wind_Speed
4 3 4 4 2 3 3 4 4 5 5 6 5 3 5 3 3 4 3 2 1 2
4 5 6 9 7 5 5 4 6 6 7 5 6 6 6 5 5 5 4 4 3 2
5 6 9 9 8 7 6 6 7 7 7 7 6 6 6 5 5 5 4 3 5 4
7 7 7 8 7 7 7 7 8 7 7 7 6 6 6 6 6 6 5 4 4 4
7 8 9 8 7 7 8 7 7 7 8 7 6 6 7 7 5 6 5 5 5 5
8 8 8 8 7 7 7 7 7 8 8 6 6 7 6 6 5 5 5 4 5 4
7 7 7 7 7 8 6 7 7 7 7 7 6 6 5 5 5 5 5 6 6 7
7 7 8 8 7 7 7 7 7 8 7 6 5 4 5 5 6 6 5 5 5 4
8 7 7 7 7 8 8 8 8 7 6 4 5 13 14 8 6 5 5 5 5 5
8 8 7 7 8 8 8 7 7 6 5 6 6 15 15 13 6 6 7 8 7 7
7 8 7 8 8 7 6 7 7 7 6 6 8 15 14 14 8 7 7 8 9 8
6 8 6 7 7 6 8 7 8 7 5 7 7 14 15 11 7 7 8 7 7 7
7 8 8 7 8 4 7 9 7 8 7 8 6 14 13 9 3 4 5 6 6 11
6 7 7 6 6 6 7 8 7 8 6 6 6 7 12 13 4 4 3 3 5 6
Wind_Direction
138 163 158 124 122 92 92 91 104 93 88 84 84 88 82 79 69 66 60 50 350 319
108 114 120 91 84 90 92 86 85 82 80 66 61 61 69 63 55 57 48 42 36 22
86 97 98 101 103 102 91 90 84 80 78 71 64 65 71 70 53 60 36 34 25 16
72 67 74 89 89 89 85 89 90 89 86 79 71 65 79 70 66 76 72 52 52 36
80 80 84 85 89 93 95 83 91 83 76 69 68 61 66 69 63 71 59 42 40 23
93 94 91 92 89 77 85 84 81 87 85 80 70 68 64 73 66 62 55 48 47 21
96 96 95 92 87 91 87 88 80 76 81 73 69 70 71 74 69 59 49 44 44 36
102 100 100 96 93 91 91 91 93 90 73 71 68 60 65 67 68 64 52 47 46 46
112 108 106 107 106 100 89 83 85 75 75 68 73 66 64 62 62 58 51 37 24 8
120 119 116 105 102 99 96 91 83 78 71 68 61 67 59 52 45 41 29 22 14 5
119 116 110 108 106 96 92 95 96 83 69 81 70 65 59 51 41 40 33 22 16 7
120 117 110 105 101 96 105 101 92 87 81 63 62 58 63 49 43 38 27 23 16 3
120 122 119 120 118 107 113 112 110 98 74 62 44 56 51 61 44 39 22 14 13 5
101 109 120 113 114 116 116 107 102 94 77 64 40 38 48 48 36 65 16 0 11 355